GW4806 Weather Reports


time (UTC)temp
F
wind
direction
speed
knots
gust
knots
rain 1hr
in
rain 24hr
in
rain mn
in
humidity
%
barometer
mb
20260906181403 72 90 0.0 1.7 0.00 0.00 0.00 88 1017.8
20260906180859 72 90 0.9 3.5 0.00 0.00 0.00 88 1017.9
20260906180354 72 127 1.7 2.6 0.00 0.00 0.00 89 1017.6
20260906175851 72 112 0.0 2.6 0.00 0.00 0.00 89 1017.9
20260906175346 72 126 0.9 1.7 0.00 0.00 0.00 90 1018.2
20260906174845 72 108 1.7 1.7 0.00 0.00 0.00 89 1018.1
20260906174344 72 131 1.7 3.5 0.00 0.00 0.00 89 1018.5
20260906173839 71 126 0.0 3.5 0.00 0.00 0.00 89 1018.6
20260906173335 71 123 1.7 3.5 0.00 0.00 0.00 89 1018.4
20260906172834 71 109 0.9 2.6 0.00 0.00 0.00 89 1018.4
20260906172331 71 144 0.0 3.5 0.00 0.00 0.00 89 1018.6
20260906171825 71 107 1.7 1.7 0.00 0.00 0.00 90 1018.8
20260906171320 71 123 0.0 2.6 0.00 0.00 0.00 90 1018.8
20260906170816 71 161 0.0 2.6 0.00 0.00 0.00 90 1018.8
20260906170312 71 132 1.7 4.3 0.00 0.00 0.00 90 1018.7
20260906165808 71 124 0.0 3.5 0.00 0.00 0.00 90 1018.7
20260906165306 71 140 1.7 2.6 0.00 0.00 0.00 90 1018.7
20260906164801 71 107 1.7 2.6 0.00 0.00 0.00 90 1018.9
20260906164256 71 168 0.0 2.6 0.00 0.00 0.00 90 1019.0
20260906163752 71 114 2.6 2.6 0.00 0.00 0.00 90 1018.7
20260906163248 71 112 0.0 3.5 0.00 0.00 0.00 90 1018.6
20260906162745 71 112 1.7 2.6 0.00 0.00 0.00 90 1018.8
20260906162240 71 128 3.5 3.5 0.00 0.00 0.00 90 1018.6
20260906161740 71 133 2.6 6.1 0.00 0.00 0.00 90 1018.5
20260906161239 71 128 3.5 3.5 0.00 0.00 0.00 90 1018.5
20260906160738 71 119 2.6 2.6 0.00 0.00 0.00 90 1018.5
20260906160237 71 114 0.9 4.3 0.00 0.00 0.00 91 1018.6
20260906155735 71 135 0.0 3.5 0.00 0.00 0.00 90 1018.6
20260906155230 71 175 0.0 2.6 0.00 0.00 0.00 90 1018.5
20260906154726 71 138 2.6 4.3 0.00 0.00 0.00 90 1018.1
20260906154221 71 121 1.7 3.5 0.00 0.00 0.00 90 1018.5
20260906153719 70 146 1.7 6.1 0.00 0.00 0.00 91 1018.3
20260906153214 71 146 0.0 4.3 0.00 0.00 0.00 91 1018.4
20260906152709 70 129 1.7 2.6 0.00 0.00 0.00 91 1018.4
20260906152203 70 114 3.5 3.5 0.00 0.00 0.00 91 1018.3
20260906151657 70 144 1.7 3.5 0.00 0.00 0.00 91 1018.4
20260906151153 70 102 1.7 4.3 0.00 0.00 0.00 91 1018.5
20260906150648 70 105 1.7 2.6 0.00 0.00 0.00 91 1018.6
20260906150144 70 151 2.6 4.3 0.00 0.00 0.00 91 1018.6
20260906145642 70 135 2.6 5.2 0.00 0.00 0.00 91 1018.5
20260906145137 70 121 1.7 4.3 0.00 0.00 0.00 91 1018.6
20260906144632 70 143 1.7 5.2 0.00 0.00 0.00 91 1018.5
20260906144127 70 135 2.6 4.3 0.00 0.00 0.00 92 1018.4
20260906143626 70 137 3.5 7.8 0.00 0.00 0.00 92 1018.6
20260906143124 70 148 1.7 4.3 0.00 0.00 0.00 92 1018.4
20260906142622 70 138 2.6 4.3 0.00 0.00 0.00 92 1018.4
20260906142118 70 90 1.7 2.6 0.00 0.00 0.00 92 1018.4
20260906141617 70 123 0.0 3.5 0.00 0.00 0.00 93 1018.6
20260906141113 70 119 1.7 2.6 0.00 0.00 0.00 93 1018.3
20260906140611 69 160 0.9 5.2 0.00 0.00 0.00 94 1018.3
20260906140106 70 131 2.6 4.3 0.00 0.00 0.00 94 1018.3
20260906135603 70 158 1.7 3.5 0.00 0.00 0.00 94 1018.6
20260906135059 69 140 2.6 4.3 0.00 0.00 0.00 94 1018.5
20260906134555 69 106 0.9 4.3 0.00 0.00 0.00 95 1018.7
20260906134055 69 186 0.9 4.3 0.00 0.00 0.00 95 1018.5
20260906133550 69 148 1.7 3.5 0.00 0.00 0.00 96 1018.5
20260906133045 69 157 1.7 4.3 0.00 0.00 0.00 96 1018.5
20260906132540 69 123 6.1 8.7 0.00 0.00 0.00 96 1018.4
20260906132036 69 169 1.7 3.5 0.00 0.00 0.00 97 1018.6
20260906131531 69 148 3.5 3.5 0.00 0.00 0.00 97 1018.5
20260906131027 69 127 1.7 2.6 0.00 0.00 0.00 97 1018.5
20260906130526 69 133 2.6 4.3 0.00 0.00 0.00 97 1018.3
20260906130021 69 154 1.7 3.5 0.00 0.00 0.00 97 1018.2
20260906125518 68 129 4.3 4.3 0.00 0.00 0.00 97 1018.1
20260906125013 68 117 0.9 6.1 0.00 0.00 0.00 97 1018.0
20260906124509 68 135 1.7 4.3 0.00 0.00 0.00 97 1018.0
20260906124003 68 120 1.7 1.7 0.00 0.00 0.00 97 1018.0
20260906123457 68 147 3.5 3.5 0.00 0.00 0.00 97 1017.7
20260906122957 68 132 1.7 3.5 0.00 0.00 0.00 97 1017.7
20260906122452 68 135 2.6 3.5 0.00 0.00 0.00 97 1017.6
20260906121948 68 111 0.9 4.3 0.00 0.00 0.00 97 1017.6
20260906121444 68 173 0.9 4.3 0.00 0.00 0.00 97 1017.6
20260906120940 68 135 1.7 2.6 0.00 0.00 0.00 97 1017.5
20260906120435 68 143 0.0 6.1 0.00 0.00 0.00 97 1017.5
20260906115932 68 124 2.6 3.5 0.00 0.00 0.00 97 1017.3
20260906115427 68 131 0.0 3.5 0.00 0.00 0.00 97 1017.3
20260906114927 68 125 1.7 4.3 0.00 0.00 0.00 97 1017.3
20260906114427 68 125 1.7 4.3 0.00 0.00 0.00 97 1017.3
20260906113923 68 111 3.5 4.3 0.00 0.00 0.00 97 1017.3
20260906113421 68 132 1.7 3.5 0.00 0.00 0.00 97 1017.4
20260906112917 68 132 1.7 4.3 0.00 0.00 0.00 97 1017.4
20260906112413 68 125 0.0 3.5 0.00 0.00 0.00 97 1017.4
20260906111908 68 96 0.9 4.3 0.00 0.00 0.00 97 1017.3
20260906111407 68 133 2.6 2.6 0.00 0.00 0.00 97 1017.2
20260906110902 67 148 0.0 4.3 0.00 0.00 0.00 97 1017.3
20260906110358 67 144 1.7 2.6 0.00 0.00 0.00 97 1017.5
20260906105857 67 123 1.7 2.6 0.00 0.00 0.00 97 1017.4
20260906105353 67 106 0.9 1.7 0.00 0.00 0.00 97 1017.6
20260906104848 67 123 0.0 1.7 0.00 0.00 0.00 97 1017.4
20260906104347 67 107 1.7 1.7 0.00 0.00 0.00 97 1017.1
20260906103845 67 117 0.0 1.7 0.00 0.00 0.00 97 1017.3
20260906103344 67 114 0.0 1.7 0.00 0.00 0.00 97 1017.3
20260906102840 67 126 0.9 1.7 0.00 0.00 0.00 97 1017.3
20260906102339 67 123 0.0 2.6 0.00 0.00 0.00 97 1017.1
20260906101834 67 103 0.0 1.7 0.00 0.00 0.00 97 1017.1
20260906101329 67 135 1.7 1.7 0.00 0.00 0.00 97 1017.1
20260906100825 68 103 0.9 2.6 0.00 0.00 0.00 97 1016.9
20260906100324 67 111 0.9 1.7 0.00 0.00 0.00 97 1017.0
20260906095819 68 126 0.0 1.7 0.00 0.00 0.00 97 1017.0
20260906095315 68 117 0.0 0.9 0.00 0.00 0.00 97 1016.9
20260906094814 68 126 0.9 1.7 0.00 0.00 0.00 97 1016.8
20260906094309 68 99 0.0 0.0 0.00 0.00 0.00 97 1016.8
20260906093805 68 90 0.0 0.0 0.00 0.00 0.00 97 1016.8
20260906093301 68 99 0.0 0.0 0.00 0.00 0.00 97 1016.7
20260906092755 68 95 0.0 1.7 0.00 0.00 0.00 97 1016.8
20260906092250 68 166 0.0 0.9 0.00 0.00 0.00 97 1016.7
20260906091746 68 112 0.0 2.6 0.00 0.00 0.00 97 1016.6
20260906091242 68 180 0.0 1.7 0.00 0.00 0.00 97 1016.5
20260906090738 69 151 1.7 1.7 0.00 0.00 0.00 97 1016.3
20260906090237 69 120 0.0 1.7 0.00 0.00 0.00 97 1016.5
20260906085736 69 114 1.7 2.6 0.00 0.00 0.00 97 1016.0
20260906085236 69 157 1.7 2.6 0.00 0.00 0.00 96 1016.1
20260906084730 69 159 0.0 2.6 0.00 0.00 0.00 96 1016.1
20260906084225 69 144 1.7 2.6 0.00 0.00 0.00 96 1015.9
20260906083720 69 148 0.0 1.7 0.00 0.00 0.00 96 1016.0
20260906083215 69 152 1.7 1.7 0.00 0.00 0.00 96 1015.9
20260906082710 69 82 0.0 1.7 0.00 0.00 0.00 96 1015.8
20260906082205 69 99 0.0 2.6 0.00 0.00 0.00 96 1016.1
20260906081702 69 90 0.0 2.6 0.00 0.00 0.00 96 1016.1
20260906081156 70 162 0.0 2.6 0.00 0.00 0.00 96 1016.2
20260906080653 70 143 1.7 1.7 0.00 0.00 0.00 96 1016.2
20260906080149 70 109 0.0 1.7 0.00 0.00 0.00 96 1016.3
20260906075648 70 135 0.0 1.7 0.00 0.00 0.00 96 1016.3
20260906075143 70 90 0.0 1.7 0.00 0.00 0.00 96 1016.1
20260906074638 70 117 0.0 2.6 0.00 0.00 0.00 96 1016.2
20260906074137 70 117 0.0 1.7 0.00 0.00 0.00 96 1016.2
20260906073632 70 90 0.0 1.7 0.00 0.00 0.00 96 1016.5
20260906073128 70 131 1.7 1.7 0.00 0.00 0.00 96 1016.3
20260906072622 70 102 0.0 1.7 0.00 0.00 0.00 96 1016.2
20260906072118 70 120 1.7 2.6 0.00 0.00 0.00 96 1016.3
20260906071615 70 109 0.0 1.7 0.00 0.00 0.00 96 1016.5
20260906071109 70 114 0.9 1.7 0.00 0.00 0.00 96 1016.5
20260906070606 70 124 0.0 2.6 0.00 0.00 0.00 96 1016.7
20260906070101 70 99 0.0 1.7 0.00 0.00 0.00 96 1016.5
20260906065600 70 96 0.0 1.7 0.00 0.00 0.00 96 1016.6
20260906065056 70 106 0.0 1.7 0.00 0.00 0.00 95 1016.9
20260906064552 70 98 0.0 1.7 0.00 0.00 0.00 95 1016.8
20260906064046 70 151 0.0 1.7 0.00 0.00 0.00 95 1016.8
20260906063541 70 126 0.0 0.9 0.00 0.00 0.00 95 1016.7
20260906063038 71 106 0.0 0.9 0.00 0.00 0.00 95 1016.9
20260906062533 71 90 0.0 0.9 0.00 0.00 0.00 95 1016.7
20260906062027 71 81 0.0 0.0 0.00 0.00 0.00 95 1016.9
20260906061523 71 90 0.0 0.9 0.00 0.00 0.00 95 1016.8
20260906061022 71 109 0.9 1.7 0.00 0.00 0.00 94 1017.0
20260906060519 71 151 0.9 0.9 0.00 0.00 0.00 94 1016.8
20260906060016 71 90 0.0 0.9 0.00 0.00 0.00 94 1017.0
20260906055511 71 145 0.9 0.9 0.00 0.00 0.00 94 1016.8
20260906055007 72 120 0.0 0.9 0.00 0.00 0.00 94 1016.7
20260906054501 72 106 0.0 1.7 0.00 0.00 0.00 94 1016.8
20260906053956 72 106 0.9 1.7 0.00 0.00 0.00 94 1016.6
20260906053453 72 117 0.0 1.7 0.00 0.00 0.00 94 1017.0
20260906052948 72 144 1.7 1.7 0.00 0.00 0.00 94 1016.9
20260906052444 72 98 0.9 1.7 0.00 0.00 0.00 94 1016.9
20260906051941 72 114 0.9 1.7 0.00 0.00 0.00 94 1017.0
20260906051436 72 106 0.0 0.9 0.00 0.00 0.00 94 1016.9
20260906050932 72 106 0.0 1.7 0.00 0.00 0.00 94 1016.9
20260906050431 72 106 0.9 0.9 0.00 0.00 0.00 94 1016.8
20260906045930 72 139 0.0 1.7 0.00 0.00 0.00 94 1016.8
20260906045429 72 110 1.7 1.7 0.00 0.00 0.00 94 1016.8
20260906044926 72 90 0.0 1.7 0.00 0.00 0.00 95 1016.8
20260906044420 72 126 0.9 2.6 0.00 0.00 0.00 95 1016.8
20260906043915 72 105 0.0 1.7 0.00 0.00 0.00 95 1016.9
20260906043412 72 106 0.0 0.9 0.00 0.00 0.00 95 1016.8
20260906042907 72 98 0.0 0.9 0.00 0.00 0.00 95 1016.8
20260906042406 72 106 0.0 0.9 0.00 0.00 0.00 95 1016.8
20260906041901 72 90 0.0 0.9 0.00 0.00 0.00 95 1016.8
20260906041356 72 69 0.9 0.9 0.00 0.00 0.00 95 1016.8
20260906040851 72 126 0.0 0.9 0.00 0.00 0.00 95 1016.7
20260906040346 73 99 0.0 0.0 0.00 0.00 0.00 95 1016.9
20260906035842 73 145 0.0 1.7 0.00 0.00 0.00 95 1017.0
20260906035337 73 98 0.0 0.9 0.00 0.00 0.00 95 1017.1
20260906034832 73 98 0.0 0.0 0.00 0.00 0.00 95 1016.9
20260906034327 73 111 0.0 1.7 0.00 0.00 0.00 95 1016.9
20260906033823 73 99 0.0 0.0 0.00 0.00 0.00 95 1016.9
20260906033322 73 99 0.0 0.0 0.00 0.00 0.00 95 1017.1
20260906032818 73 90 0.0 0.0 0.00 0.00 0.00 95 1016.9
20260906032314 73 90 0.0 0.0 0.00 0.00 0.00 95 1017.0
20260906031808 73 90 0.0 0.0 0.00 0.00 0.00 95 1016.7
20260906031333 73 90 0.9 1.7 0.00 0.00 0.00 95 1016.7
20260906030833 73 98 0.0 0.0 0.00 0.00 0.00 95 1016.6
20260906030329 73 98 0.0 0.9 0.00 0.00 0.00 95 1016.3
20260906025823 73 111 0.9 1.7 0.00 0.00 0.00 95 1016.6
20260906025317 73 97 0.0 0.9 0.00 0.00 0.00 95 1016.5
20260906024816 73 90 0.0 0.9 0.00 0.00 0.00 95 1016.2
20260906024315 73 99 0.0 0.9 0.00 0.00 0.00 95 1016.3
20260906023811 73 90 0.0 1.7 0.00 0.00 0.00 95 1016.3
20260906023306 73 90 0.0 0.0 0.00 0.00 0.00 95 1016.5
20260906022802 73 105 0.0 0.9 0.00 0.00 0.00 95 1016.3
20260906022257 73 99 0.0 0.0 0.00 0.00 0.00 95 1016.3
20260906021753 73 99 0.0 0.0 0.00 0.00 0.00 94 1016.2
20260906021252 73 99 0.0 0.0 0.00 0.00 0.00 94 1016.0
20260906020747 73 99 0.0 0.0 0.00 0.00 0.00 94 1016.0
20260906020246 73 90 0.0 0.9 0.00 0.00 0.00 94 1016.0
20260906015741 73 99 0.0 0.0 0.00 0.00 0.00 94 1015.9
20260906015239 73 99 0.0 0.0 0.00 0.00 0.00 94 1015.8
20260906014734 73 99 0.0 0.0 0.00 0.00 0.00 94 1015.7
20260906014230 74 99 0.0 0.0 0.00 0.00 0.00 94 1015.6
20260906013726 74 165 0.0 0.9 0.00 0.00 0.00 94 1015.6
20260906013226 74 29 0.0 0.0 0.00 0.00 0.00 94 1015.7
20260906012721 74 29 0.0 0.0 0.00 0.00 0.00 93 1015.5
20260906012216 74 29 0.0 0.0 0.00 0.00 0.00 93 1015.5
20260906011711 74 29 0.0 0.0 0.00 0.00 0.00 93 1015.3
20260906011205 74 90 0.0 0.0 0.00 0.00 0.00 93 1015.4
20260906010701 74 90 0.0 0.0 0.00 0.00 0.00 93 1015.3
20260906010158 74 90 0.0 0.0 0.00 0.00 0.00 93 1015.1
20260906005657 74 90 0.0 0.0 0.00 0.00 0.00 92 1015.2
20260906005156 75 90 0.0 0.0 0.00 0.00 0.00 92 1015.2
20260906004655 75 90 0.0 0.0 0.00 0.00 0.00 92 1015.2
20260906004150 75 90 0.0 0.0 0.00 0.00 0.00 92 1015.2
20260906003646 75 90 0.0 0.0 0.00 0.00 0.00 92 1014.9
20260906003141 75 114 0.9 0.9 0.00 0.00 0.00 91 1015.0
20260906002636 75 20 0.0 0.0 0.00 0.00 0.00 91 1015.2
20260906002131 75 90 0.0 0.0 0.00 0.00 0.00 91 1015.0
20260906001626 75 166 0.0 0.9 0.00 0.00 0.00 91 1014.8
20260906001126 75 99 0.0 0.0 0.00 0.00 0.00 91 1014.9
20260906000622 75 90 0.0 0.0 0.00 0.00 0.00 91 1014.9
20260906000117 76 90 0.0 0.0 0.00 0.00 0.00 91 1014.9
20260905235616 76 131 0.0 1.7 0.00 0.00 0.00 91 1014.8
20260905235111 76 106 0.9 0.9 0.00 0.00 0.00 91 1014.9
20260905234606 76 135 0.0 0.0 0.00 0.00 0.00 91 1014.9
20260905234102 76 103 0.0 0.0 0.00 0.00 0.00 91 1014.9
20260905233602 76 90 0.0 0.0 0.00 0.00 0.00 90 1014.9
20260905233056 76 90 0.0 0.0 0.00 0.00 0.00 90 1015.0
20260905232552 76 90 0.0 0.0 0.00 0.00 0.00 90 1014.8
20260905232047 76 90 0.0 0.9 0.00 0.00 0.00 90 1014.6
20260905231542 76 154 0.0 1.7 0.00 0.00 0.00 90 1014.8
20260905231039 76 90 0.0 0.0 0.00 0.00 0.00 90 1014.7
20260905230538 76 117 0.0 0.9 0.00 0.00 0.00 89 1014.8
20260905230037 76 120 0.0 2.6 0.00 0.00 0.00 89 1014.7
20260905225531 76 114 0.0 1.7 0.00 0.00 0.00 89 1014.6
20260905225026 76 22 0.0 2.6 0.00 0.00 0.00 89 1014.7
20260905224521 76 145 0.9 2.6 0.00 0.00 0.00 89 1014.8
20260905224020 76 119 0.0 2.6 0.00 0.00 0.00 88 1014.7
20260905223518 76 117 0.9 1.7 0.00 0.00 0.00 88 1014.7
20260905223013 76 120 0.9 2.6 0.00 0.00 0.00 89 1014.7
20260905222508 76 127 0.0 2.6 0.00 0.00 0.00 89 1014.8
20260905222003 76 112 1.7 1.7 0.00 0.00 0.00 89 1014.8
20260905221500 76 99 0.0 1.7 0.00 0.00 0.00 90 1014.7
20260905220955 76 105 0.0 1.7 0.00 0.00 0.00 89 1014.7
20260905220451 76 120 0.0 1.7 0.00 0.00 0.00 89 1014.7
20260905215950 76 90 0.9 2.6 0.00 0.00 0.00 88 1014.6
20260905215446 76 132 1.7 2.6 0.00 0.00 0.00 89 1014.5
20260905214942 76 131 1.7 2.6 0.00 0.00 0.00 89 1014.4
20260905214437 76 164 0.0 2.6 0.00 0.00 0.00 89 1014.4
20260905213932 76 127 0.0 2.6 0.00 0.00 0.00 89 1014.7
20260905213428 76 129 1.7 2.6 0.00 0.00 0.00 89 1014.5
20260905212923 76 113 0.0 2.6 0.00 0.00 0.00 89 1014.7
20260905212418 76 154 0.0 3.5 0.00 0.00 0.00 89 1014.6
20260905211917 76 195 0.0 2.6 0.00 0.00 0.00 89 1014.7
20260905211413 75 147 1.7 4.3 0.00 0.00 0.00 89 1014.4
20260905210909 75 120 0.0 3.5 0.00 0.00 0.00 90 1014.5
20260905210403 75 83 0.9 2.6 0.00 0.00 0.00 90 1014.5
20260905205903 75 146 1.7 4.3 0.00 0.00 0.00 90 1014.4
20260905205357 75 132 1.7 3.5 0.00 0.00 0.00 90 1014.5
20260905204856 75 120 1.7 4.3 0.00 0.00 0.00 90 1014.3
20260905204353 75 120 0.0 4.3 0.00 0.00 0.00 90 1014.3
20260905203851 75 132 1.7 4.3 0.00 0.00 0.00 90 1014.3
20260905203347 75 100 1.7 4.3 0.00 0.00 0.00 90 1014.4
20260905202842 75 23 0.0 3.5 0.00 0.00 0.00 90 1014.5
20260905202337 75 274 0.0 3.5 0.00 0.00 0.00 90 1014.2
20260905201833 75 105 0.9 2.6 0.00 0.00 0.00 90 1013.8
20260905201328 75 122 2.6 2.6 0.00 0.00 0.00 89 1013.9
20260905200822 76 49 1.7 3.5 0.00 0.00 0.00 89 1014.3
20260905200319 76 84 0.9 2.6 0.00 0.00 0.00 89 1014.3
20260905195816 76 111 0.9 2.6 0.00 0.00 0.00 89 1014.7
20260905195311 77 180 1.7 3.5 0.00 0.00 0.00 89 1014.6
20260905194807 77 66 3.5 7.0 0.00 0.00 0.00 88 1014.3
20260905194301 77 90 0.9 2.6 0.00 0.00 0.00 88 1014.3
20260905193800 77 45 0.0 3.5 0.00 0.00 0.00 88 1014.5
20260905193255 78 63 0.0 2.6 0.00 0.00 0.00 87 1014.7
20260905192750 78 15 0.9 1.7 0.00 0.00 0.00 87 1014.8
20260905192247 78 120 0.0 3.5 0.00 0.00 0.00 86 1014.9
20260905191746 79 108 2.6 2.6 0.00 0.00 0.00 85 1015.0
20260905191245 79 114 0.0 1.7 0.00 0.00 0.00 84 1015.2
20260905190743 80 209 0.0 2.6 0.00 0.00 0.00 84 1015.5
20260905190243 80 345 1.7 1.7 0.00 0.00 0.00 83 1015.4
20260905185742 80 174 0.9 2.6 0.00 0.00 0.00 83 1015.5
20260905185236 79 81 0.0 1.7 0.00 0.00 0.00 83 1015.6
20260905184730 79 151 2.6 2.6 0.00 0.00 0.00 84 1015.6
20260905184229 79 355 1.7 2.6 0.00 0.00 0.00 85 1015.6
20260905183753 79 90 0.0 2.6 0.00 0.00 0.00 84 1015.8
20260905183249 79 160 2.6 2.6 0.00 0.00 0.00 84 1015.7
20260905182748 79 139 1.7 1.7 0.00 0.00 0.00 84 1015.8
20260905182248 78 109 0.9 2.6 0.00 0.00 0.00 86 1015.9
20260905181743 77 7 0.0 1.7 0.00 0.00 0.00 86 1016.2